Flag for U.S.A. Weather past 2 weeks in Bakersfield, California, U.S.A.

Now
92 °F

Sunny.


Feels Like: 89 °F
Forecast: 68 / 96 °F
Wind: 5 mph from Northeast

Location: Meadows Field

Current Time: Jul 24, 2014 at 3:59:50 PM

Latest Report: Jul 24, 2014 at 2:54 PM


Visibility: 10 mi

Pressure: 29.84 "Hg

Humidity: 23%

Dew point: 49 °F

Location of BakersfieldLocation

Historic Weather in Bakersfield — Graph

°F

Bakersfield temperature yesterday

Maximum temperature yesterday: 89 °F (at 4:54 PM)
Minimum temperature yesterday: 67 °F (at 5:54 AM)
Average temperature yesterday: 80 °F

Past Weeks' High & Low Weather Summary

 TemperatureHumidityPressure
High103 °F (Jul 9, 3:54 PM)68% (Jul 23, 5:54 AM)30.12 "Hg (Jul 23, 5:54 AM)
Low67 °F (Jul 23, 5:54 AM)8% (Jul 9, 2:54 PM)29.72 "Hg (Jul 9, 5:54 PM)
Average85 °F36%29.89 "Hg
* Reported Jul 9 2:54 PM — Jul 24 2:54 PM, Bakersfield, Weather by CustomWeather, © 2014

Note: Actual official high and low records may vary slightly from our data, if they occured in-between our weather recording intervals... More about our weather records

Advertising

Bakersfield weather history for previous 24 hours

 ConditionsComfort  
Time TempWeatherWind HumidityBarometerVisibility
2:54 PM
Jul 24
92 °FSunny.5 mph23%29.84 "Hg10 mi
1:54 PM91 °FSunny.3 mph25%29.86 "Hg10 mi
12:54 PM88 °FSunny.8 mph25%29.89 "Hg10 mi
11:54 AM84 °FSunny.N/A33%29.92 "Hg10 mi
10:54 AM82 °FSunny.5 mph40%29.94 "Hg10 mi
9:54 AM79 °FSunny.5 mph45%29.96 "Hg10 mi
8:54 AM77 °FSunny.3 mph47%29.97 "Hg10 mi
7:54 AM74 °FSunny.No wind53%29.98 "Hg10 mi
6:54 AM71 °FClear.5 mph59%29.98 "Hg10 mi
5:54 AM69 °FClear.7 mph66%29.96 "Hg10 mi
4:54 AM70 °FClear.8 mph68%29.95 "Hg10 mi
3:54 AM71 °FClear.7 mph63%29.95 "Hg10 mi
2:54 AM75 °FClear.6 mph54%29.96 "Hg10 mi
1:54 AM77 °FClear.5 mph45%29.96 "Hg10 mi
12:54 AM79 °FClear.7 mph45%29.97 "Hg10 mi
11:54 PM
Jul 23
80 °FClear.6 mph49%29.97 "Hg10 mi
10:54 PM81 °FClear.5 mph47%29.96 "Hg10 mi
9:54 PM83 °FClear.5 mph44%29.96 "Hg10 mi
8:54 PM83 °FSunny.7 mph44%29.94 "Hg10 mi
7:54 PM86 °FSunny.9 mph42%29.93 "Hg10 mi
6:54 PM88 °FSunny.10 mph38%29.93 "Hg10 mi
5:54 PM89 °FSunny.6 mph35%29.94 "Hg10 mi
4:54 PM89 °FSunny.12 mph34%29.96 "Hg10 mi
3:54 PM87 °FSunny.13 mph36%29.98 "Hg10 mi
Weather by CustomWeather, © 2014

See weather overviewHow to use our weather pages